Weather Roundup
Issued by NWS Chicago, IL

Home | Current Version | Previous Version | Text Only | Print | Product List | Glossary On
Versions: 1 2 3 4 5 6 7 8 9 10 11 12 13 14 15 16 17 18 19 20 21 22 23 24 25 26 27 28 29 30 31 32 33 34 35 36 37 38 39 40 41 42 43 44 45 46 47 48 49 50
000
NZUS59 KLOT 050712
HRRLOT

CHICAGO AREA WEATHER ROUNDUP
NATIONAL WEATHER SERVICE CHICAGO/ROMEOVILLE IL
200 AM CDT WED AUG 05 2015

NOTE: "FAIR" INDICATES FEW OR NO CLOUDS BELOW 12,000 FEET WITH NO
SIGNIFICANT WEATHER AND/OR OBSTRUCTIONS TO VISIBILITY.

* THESE STATIONS ARE NOT UNDER NWS QUALITY CONTROL. THEY ALSO MAY NOT
  REPORT WEATHER SUCH AS PRECIPITATION OR FOG.

ILZ005-006-012>014-019>023-050800-
NORTHEAST ILLINOIS

CITY           SKY/WX    TMP DP  RH WIND       PRES   REMARKS
OHARE          PTCLDY    65  58  78 CALM      30.03S
MIDWAY         MOCLDY    71  61  70 S5        30.02F
AURORA         CLEAR     56  53  90 NW3       30.05S
LANSING*       CLEAR     59  58  95 CALM      30.03F
JOLIET*        CLEAR     59  58  96 CALM      30.03F
WAUKEGAN       CLEAR     63  58  83 W3        30.03S
DUPAGE AIRPORT CLEAR     61  56  83 CALM      30.03F
WHEELING       CLEAR     63  57  81 CALM      30.04F
KANKAKEE*      CLEAR     62  59  91 CALM      30.04F
MORRIS*        CLEAR     61  58  88 CALM      30.02F
LEWIS AIRPORT* CLEAR     62  55  80 CALM      30.04S
NORTHERLY IS     N/A     70  59  68 SW5         N/A
$$

WIZ051-052-058>065-066-070>072-050800-
SOUTHEAST WISCONSIN

CITY           SKY/WX    TMP DP  RH WIND       PRES   REMARKS
MILWAUKEE      PTCLDY    63  55  75 CALM      30.03S
KENOSHA*       PTCLDY    58  56  93 W3        30.03S
RACINE*        CLEAR     63  56  78 W5        30.04F
BURLINGTON     CLEAR     53  53  97 CALM      30.03F
WAUKESHA       CLEAR     55  52  88 CALM      30.05S
WEST BEND      CLEAR     55  54  94 CALM      30.03F
$$

INZ001>003-010>013-019-020-050800-
NORTHWEST INDIANA

CITY           SKY/WX    TMP DP  RH WIND       PRES   REMARKS
GARY*          CLEAR     60  59  97 CALM      30.04S
MICHIGAN CITY* NOT AVBL
RENSSELAER*    NOT AVBL
VALPARAISO     CLEAR     61  57  87 CALM      30.04S
$$

LMZ740>746-050800-
SOUTHERN LAKE MICHIGAN

STATION/POSITION TIME  SKY/WX   TEMP WIND        PRES    VSBY
                                AIR  DIR/SP/G
                 (UTC)          (F)  (DEG/KT/KT) (MB)    (MI)
HARRISON CRIB    0600            71  170/  6/  7   N/A
BURNHAM HARBOR   0700            71  240/  3/  4   N/A
CALUMET HARBOR   0600            71  180/  2/  4   N/A
BURNS HARBOR     0600            69  160/  4/  6 1017.3F
MICHIGAN CITY    0600            69  140/  7/  8   N/A
$$

ABBREVIATIONS USED IN REMARKS
   TC - TEMPERATURE IN CELSIUS
  WCI - WIND CHILL INDEX
   HX - HEAT INDEX
  VSB - VISIBILITY
$$



USA.gov is the U.S. government's official web portal to all federal, state and local government web resources and services.